Location: North Bay
(46.3091°N, 79.4608°W)
Time: 03:12:34
(UTC-04:00)

N. Korean satellite - Visible Passes

Search period start: 21 October 2019 00:00
Search period end: 31 October 2019 00:00
Orbit: 455 x 508 km, 97.2° (Epoch: 20 October)

Date Brightness Start Highest point End Pass type
(mag) Time Alt. Az. Time Alt. Az. Time Alt. Az.
21 Oct 9.0 06:40:34 10° NE 06:43:46 28° E 06:46:58 10° SSE visible
21 Oct 8.5 18:51:47 10° SSW 18:54:57 34° W 18:58:09 10° NNW visible
22 Oct 10.1 06:16:05 10° NE 06:18:17 15° E 06:20:30 10° SE visible
23 Oct 10.4 19:37:01 10° WSW 19:38:01 11° W 19:39:02 10° WNW visible
24 Oct 7.9 06:57:45 10° NNE 07:01:18 46° E 07:04:51 10° S visible
24 Oct 9.5 19:09:47 10° SW 19:12:29 21° W 19:15:14 10° NW visible
25 Oct 9.3 06:32:52 10° NE 06:35:53 24° E 06:38:54 10° SSE visible
25 Oct 8.0 18:43:45 10° S 18:47:02 43° W 18:50:24 10° NNW visible
26 Oct 10.3 06:08:41 10° ENE 06:10:22 13° E 06:12:03 10° ESE visible
27 Oct 6.8 07:15:05 10° NNE 07:18:46 79° ESE 07:22:28 10° S visible
27 Oct 10.1 19:28:13 10° WSW 19:30:03 14° W 19:31:54 10° WNW visible
28 Oct 8.4 06:49:57 10° NNE 06:53:24 38° E 06:56:52 10° SSE visible
28 Oct 9.1 19:01:34 10° SSW 19:04:31 26° W 19:07:32 10° NW visible
29 Oct 9.6 06:25:11 10° NE 06:27:57 20° E 06:30:43 10° SE visible
29 Oct 7.4 18:35:42 10° S 18:39:06 55° W 18:42:34 10° NNW visible
30 Oct 10.5 06:01:41 10° ENE 06:02:24 10° E 06:03:06 10° E visible
